Погода в Здвинске

Погода в Здвинске : погода сейчас, прогноз погоды и архив. Всё, что Вы хотите узнать о погоде в Здвинске!

Хотите узнать прогноз погоды в Здвинске? Тогда Вам сюда: Погода в Здвинске

Поиск расширенной информации на нашем сайте:

Полезная информация: трубы 25 мм хром

Другие новости

Новости СМИ2

Главная страница сайта

Новости сайта

02.10.2013

Напоминаем, что на нашем новом сайте вы можете получить высокодетализированные прогнозы погоды по пунктам России, СНГ и мира (включающие важные для авиации метеовеличины, такие как направление и скорость ветра, видимость, явления погоды, количество и форма облачности, нижняя и верхняя граница облачности), а также ознакомиться с разнообразными материалами по авиационной метеорологии и подборкой полезных ссылок на эту тему.

Сайт Метеоцентр.Азия посвящён разработке технологий оптимизации авиаметеорологического обслуживания, включая проектирование и перспективное создание нескольких автоматизированных авиаметеорологических систем:
- система выпуска высокодетальных прогностических карт явлений погоды для нижнего воздушного пространства по России и ближнему зарубежью;
- система верификации прогнозов TAF (выпускаемых синоптиками официальных АМСГ РФ и ближнего зарубежья) и AUTOTAF (выпускаемых сайтом Метеоцентр.Азия) - выявление ошибок, онлайн-сопоставление с фактической погодой METAR, автоматическое внесение коррективов в прогнозы при резком отклонении фактической погоды от прогноза, подсчёт оправдываемости прогнозов по элементам и в целом;
- система обработки, анализа и отображения авиаметеорологической информации для применения провайдерами метеорологической информации.

Рекомендуем: Стойка для печатной продукции

Погода в Здвинске - сегодня

Время (UTC), дата Ветер
(°,м/с) 
Видим.   Явления Облачность Т
(°С)
Тd
(°С)
f(%) Тe
(°С)
Pmin
(гПа)
dP
(гПа)
Po
(мм)
O2
(г/м3)
Тmin Tmax R s Состояние
почвы
03 21.03.17 360 (С) 20000 м    ясно 
-9.2 -13.2 73 -9  1035  0.4  765  320           
06 21.03.17 020 (С) 20000 м    ясно 
-3.5 -13.8 45 -5  1034.5  -0.2  765  313           
09 21.03.17 350 (С) 20000 м    ясно 
+1.1 -10.3 42 1033.9  -0.4  765  308           
12 21.03.17 350 (С) 20000 м    ясно 
+0.6 -9.4 47 -1  1033.9  765  308    +2       
15 21.03.17 010 (С) 20000 м    ясно 
-5.4 -12.6 57 -7  1034.5  0.3  765  316           
18 21.03.17 тихо ()   20000 м    ясно 
-9.5 -14.8 65 -10  1035  0.2  765  321           
21 21.03.17 360 (С) 20000 м    ясно 
-12.9 -15.2 83 -13  1035.6  0.5  765  325           
00 22.03.17 350 (С) 20000 м    ясно 
-14.4 -17.2 79 -14  1036.8  1.1  766  327  -14.4      44  равномерный
мокрый или
старый снег
100% 
03 22.03.17 010 (С) 20000 м    ясно 
-6.8 -14.7 53 -6  1037.9  1.5  767  318  -14.5         
06 22.03.17 010 (С) 20000 м    ясно 
+0.2 -12 39 +1  1038.2  0.7  768  310           
09 22.03.17 030 (СВ) 20000 м    ясно 
+3.3 -10.2 36 +3  1038.2  0.1  768  307           
12 22.03.17 360 (С) 20000 м    ясно 
+3.4 -11.1 34 +4  1038.4  0.2  768  307    +4.4       
15 22.03.17 тихо ()   20000 м    ясно 
-5.3 -8.3 79 -5  1039.4  0.5  768  317           
18 22.03.17 250 (З) 20000 м    ясно 
-9.1 -10.7 88 -9  1039.4  -0.1  768  321           
21 22.03.17 тихо ()   20000 м    ясно 
-11.2 -12.7 89 -11  1039.5  -0.1  768  324           
00 23.03.17 050 (СВ) 20000 м    ясно 
-13.7 -15.3 88 -14  1040.4  0.7  769  327  -13.9      42  равномерный
мокрый или
старый снег
100% 
03 23.03.17 тихо ()   20000 м    3/0 верхняя 
[Ci fib]
-8.6 -10.3 87 -9  1040.6  0.5  769  321  -15.2         
06 23.03.17 130 (ЮВ) 20000 м    ясно 
+3.7 -12.2 30 +5  1039.7  -0.2  769  307           
09 23.03.17 300 (СЗ) 20000 м    ясно 
+5 -9.8 33 +6  1038.9  -0.7  768  305           
12 23.03.17 340 (С) 20000 м    ясно 
+3.8 -10.5 34 +5  1038.1  -0.8  768  306    +9.1       
15 23.03.17 тихо ()   20000 м    ясно 
-5.8 -9.6 74 -6  1038.1  -0.6  767  317           
18 23.03.17 100 (В) 20000 м    ясно 
-9.7 -11.8 85 -11  1036.9  -1.4  766  321           
21 23.03.17 110 (В) 20000 м    ясно 
-10.3 -14 74 -12  1035.4  -1.5  765  322           
00 24.03.17 110 (В) 20000 м    10/0 верхняя 
[Cs]
-6.8 -13.1 61 -8  1033.4  -1.8  764  317  -11.4      41  равномерный
мокрый или
старый снег
100% 
03 24.03.17 100 (В) 20000 м    1/0 верхняя 
[Ci fib]
-2.4 -12.2 47 -4  1031.3  -1.8  763  311           
Время (UTC), дата Ветер
(°,м/с) 
Видим.   Явления Облачность Т
(°С)
Тd
(°С)
f(%) Тe
(°С)
Pmin
(гПа)
dP
(гПа)
Po
(мм)
O2
(г/м3)
Тmin Tmax R s Состояние
почвы

Для получения пояснительной информации подведите курсор к названию столбца.

ПОГОДА в Здвинске - архив

Всё, что Вы хотите узнать о погоде в Здвинске - удобно и подробно!

Выберите нужную дату (начиная с 1 января 2015* года) и нажмите кнопку "Найти".
Будут отображены архивные сводки погоды по пункту Здвинск, начиная с указанной даты.


Отображать данные в формате CSV (для использования в таблицах Excel)


Внимание! Наш архив погоды предназначен исключительно для личного некоммерческого использования в познавательных целях. Если Вам необходимы официальные справки о состоянии погоды (для производственных, юридических, коммерческих и т.п. целей), обращайтесь в органы Росгидромета.

*Примечание: данная дата относится к архиву по метеостанциям СССР (Россия, СНГ, Балтия).
Архив по метеостанциям Зарубежной Европы и Азии (кроме Китая) хранится 10 дней, по другим регионам земного шара (Китай, Африка, Америка, Австралия, Океания) - 1 день.

Здвинск - район местоположения метеостанции


Название, широта, долгота, высота метеостанции:
Здвинск 54.7°ш. 78.7°д. 113 м над ур. моря [Российская Федерация]

Дополнительная информация

В oтличие oт бoльшинства пoгoдных сайтoв мы публикуем пoдрoбную метеoинфoрмацию в детальнoм прoфессиoнальнoм фoрмате.

Характеристики температуры и влажнoсти вoздуха измеряются на высoте 2 м в тени вдали oт зданий и деревьев.
Скoрoсть ветра измеряется на высoте 10 м (на урoвне рoста челoвека скoрoсть ветра ниже в 1.5-2 раза). Если метеoстанция нахoдится в гoрoде или в лесу, тo скoрoсть ветра занижена на 2-4 м/с пo сравнению с oткрытым местoм. Скoрoсть ветра над акватoриями крупных рек и oзёр, а также на вершинах хoлмoв на 2-5 м/с выше, чем в oбычных услoвиях.
Атмoсфернoе давление в разных тoчках местнoсти мoжет значительнo oтличаться oт давления на метеoстанции, в зависимoсти oт услoвий рельефа (при пoдъёме на 10 м давление пoнижается примернo на 1 мм рт.ст.).